Location: ??????
(55.6361°N, 38.0803°E)
Time: 01:07:41
(UTC+00:00)

Cosmos 1743 - Pass Details

Date: 30 March 2020
Orbit: 510 x 527 km, 82.6° (Epoch: 26 May)

Event Time Altitude Azimuth Distance (km) Brightness Sun altitude
Rises 01:05:43 0° 348° (NNW) 2,668 6.6 -16.3°
Reaches altitude 10° 01:07:52 10° 349° (NNW) 1,777 5.7 -16.0°
Maximum altitude 01:11:47 86° 75° (ENE) 535 2.7 -15.5°
Drops below altitude 10° 01:15:41 10° 168° (SSE) 1,770 5.2 -15.1°
Sets 01:17:49 0° 169° (S) 2,656 6.1 -14.8°
